User: anonymous   Login
Location: Unspecified
(0.0000°N, 0.0000°E)
Time: 09:09:55
(UTC+00:00)
Language:

NTS 1 - Orbit

View from above orbital plane
View from above orbital plane
View from above satellite
View from above satellite

Ground track
Ground track

The orbit is defined by the following mean orbital elements,

1 07369U          26104.20790999 +.00000000 +00000-0 +00000-0 0 00006
2 07369 124.8416 234.7782 0067491  69.7407  30.7122  3.07214671    02
Epoch (UTC): 14 April 2026 04:59:23
Eccentricity: 0.0067491
inclination: 124.8416°
perigee height: 13475 km
apogee height: 13745 km
right ascension of ascending node: 234.7782°
argument of perigee: 69.7407°
revolutions per day: 3.07214671
mean anomaly at epoch: 30.7122°

The dashed part of the orbit path shows where the satellite is in the earth's shadow,  

DLR